Location: ??
(34.9170°N, 135.5016°E)
Time: 23:24:43
(UTC+00:00)

RS-15 - Pass Details

Date: 26 April 2021
Orbit: 1888 x 2157 km, 64.8° (Epoch: 12 May)

Event Time Altitude Azimuth Distance (km) Brightness Sun altitude
Rises 13:39:37 0° 318° (NW) 5,447 11.2 -38.1°
Reaches altitude 10° 13:46:06 10° 344° (NNW) 4,511 10.6 -38.6°
Maximum altitude 13:51:12 13° 10° (N) 4,281 10.3 -39.0°
Drops below altitude 10° 13:56:23 10° 37° (NE) 4,601 10.3 -39.4°
Sets 14:03:07 0° 63° (ENE) 5,648 10.6 -39.8°
